Change the Weather History Date:

Wednesday, June 6, 2012

  Actual Average Record
Temperature  
Mean Temperature 83 °F -  
Max Temperature 90 °F 86 °F 95 °F (1960)
Min Temperature 77 °F 71 °F 63 °F (1956)
Cooling Degree Days 18    
Growing Degree Days 33 (Base 50)    
Moisture  
Dew Point 75 °F    
Average Humidity 82    
Maximum Humidity 95    
Minimum Humidity 59    
Precipitation  
Precipitation 0.00 in - - ()
Sea Level Pressure  
Sea Level Pressure 29.81 in    
Wind  
Wind Speed 3 mph (SSW)    
Max Wind Speed 13 mph    
Max Gust Speed -    
Visibility 10 miles    
Events Thunderstorm    
Averages and records for this station are not official NWS values.
T = Trace of Precipitation, MM = Missing Value Source: NWS Daily Summary

Daily Weather History Graph

Daily Weather History Graph

Search for Another Location

Airport or City:

Trip Planner

Search our weather history database for the weather conditions in past years. The results will help you decide how hot, cold, wet, or windy it might be!

Date:

Astronomy

Jun. 06, 2012 Rise Set
Actual Time 5:53 AM CDT 7:55 PM CDT
Civil Twilight 5:25 AM CDT 8:23 PM CDT
Nautical Twilight 4:52 AM CDT 8:56 PM CDT
Astronomical Twilight 4:17 AM CDT 9:32 PM CDT
Moon 10:14 PM CDT (6/6) 8:10 AM CDT (6/6)
Length of Visible Light 14h 57m
Length of Day
14h 02m
Waning Gibbous, 93% of the Moon is Illuminated
Jun 6
Waning Gibbous
Jun 11
Last Quarter
Jun 19
New
Jun 26
First Quarter
Jul 3
Full

Hourly Weather History & Observations

Time (CDT) Temp. Heat Index Dew Point Humidity Pressure Visibility Wind Dir Wind Speed Gust Speed Precip Events Conditions
12:55 AM 77.9 °F - 74.3 °F 89% 29.78 in 10.0 mi Calm Calm - N/A   Clear
1:55 AM 77.0 °F - 74.8 °F 93% 29.76 in 10.0 mi SW 4.6 mph - N/A   Clear
2:44 AM 78.8 °F - 75.2 °F 89% 29.76 in 10.0 mi Calm Calm - N/A   Mostly Cloudy
2:55 AM 79.2 °F - 75.7 °F 89% 29.77 in 10.0 mi Calm Calm - N/A   Mostly Cloudy
3:08 AM 78.8 °F - 75.2 °F 89% 29.77 in 10.0 mi Calm Calm - N/A   Overcast
3:36 AM 78.8 °F - 75.2 °F 89% 29.77 in 10.0 mi Calm Calm - N/A   Mostly Cloudy
3:38 AM 78.8 °F - 75.2 °F 89% 29.77 in 10.0 mi Calm Calm - N/A   Mostly Cloudy
3:55 AM 78.8 °F - 75.7 °F 90% 29.76 in 10.0 mi Calm Calm - N/A   Mostly Cloudy
3:56 AM 78.8 °F - 75.2 °F 89% 29.76 in 10.0 mi Calm Calm - N/A   Scattered Clouds
4:54 AM 77.0 °F - 75.2 °F 94% 29.78 in 10.0 mi WSW 3.5 mph - N/A   Mostly Cloudy
4:55 AM 77.7 °F - 75.7 °F 94% 29.78 in 10.0 mi West 3.5 mph - N/A   Mostly Cloudy
5:01 AM 77.0 °F - 75.2 °F 94% 29.78 in 10.0 mi WSW 3.5 mph - N/A   Scattered Clouds
5:55 AM 78.3 °F - 76.8 °F 95% 29.78 in 10.0 mi Calm Calm - N/A   Scattered Clouds
6:55 AM 79.2 °F - 76.6 °F 92% 29.79 in 10.0 mi Calm Calm - N/A   Clear
7:55 AM 81.9 °F 89.5 °F 76.6 °F 84% 29.80 in 10.0 mi Calm Calm - N/A   Clear
8:55 AM 83.3 °F 91.1 °F 75.4 °F 77% 29.82 in 10.0 mi Calm Calm - N/A   Clear
9:55 AM 84.7 °F 92.8 °F 74.7 °F 72% 29.81 in 10.0 mi Calm Calm - N/A   Clear
10:55 AM 88.0 °F 96.5 °F 73.8 °F 63% 29.81 in 10.0 mi ENE 4.6 mph - N/A   Clear
11:55 AM 87.8 °F 96.6 °F 74.5 °F 64% 29.82 in 10.0 mi South 8.1 mph - N/A   Scattered Clouds
12:55 PM 89.8 °F 98.6 °F 73.8 °F 59% 29.81 in 10.0 mi SSW 9.2 mph - N/A   Scattered Clouds
1:55 PM 89.4 °F 98.3 °F 74.1 °F 60% 29.81 in 10.0 mi SSW 9.2 mph - N/A   Clear
2:55 PM 87.8 °F 96.1 °F 73.9 °F 63% 29.81 in 10.0 mi South 10.4 mph - N/A   Clear
3:55 PM 87.6 °F 98.7 °F 76.5 °F 69% 29.80 in 10.0 mi South 12.7 mph - N/A   Clear
4:55 PM 86.7 °F 97.3 °F 76.5 °F 71% 29.79 in 10.0 mi SSW 9.2 mph - N/A   Mostly Cloudy
5:55 PM 85.5 °F 95.9 °F 76.8 °F 75% 29.78 in 10.0 mi SSW 10.4 mph - N/A   Partly Cloudy
6:55 PM 84.2 °F 93.8 °F 76.6 °F 78% 29.80 in 10.0 mi SW 10.4 mph - N/A   Clear
7:55 PM 82.9 °F 92.4 °F 77.5 °F 84% 29.83 in 10.0 mi WSW 5.8 mph - N/A   Clear
8:54 PM 84.2 °F 94.1 °F 77.0 °F 79% 29.83 in 10.0 mi SSE 5.8 mph - N/A   Mostly Cloudy
8:55 PM 83.5 °F 92.9 °F 77.2 °F 81% 29.83 in 10.0 mi SSE 4.6 mph - N/A   Mostly Cloudy
8:59 PM 84.2 °F 94.1 °F 77.0 °F 79% 29.83 in 10.0 mi South 5.8 mph - N/A   Mostly Cloudy
9:23 PM 82.4 °F 90.9 °F 77.0 °F 84% 29.85 in 10.0 mi ENE 4.6 mph - N/A   Overcast
9:26 PM 82.4 °F 89.5 °F 75.2 °F 79% 29.85 in 10.0 mi NE 6.9 mph - N/A Thunderstorm Thunderstorm
9:53 PM 77.0 °F - 73.4 °F 89% 29.87 in 10.0 mi Variable 4.6 mph - N/A Thunderstorm Thunderstorm
9:55 PM 77.7 °F - 73.0 °F 85% 29.87 in 10.0 mi North 4.6 mph - N/A Thunderstorm Thunderstorm
10:12 PM 77.0 °F - 73.4 °F 89% 29.87 in 10.0 mi Calm Calm - N/A Thunderstorm Thunderstorm
10:21 PM 77.0 °F - 71.6 °F 83% 29.87 in 10.0 mi Calm Calm - N/A Thunderstorm Mostly Cloudy
10:36 PM 77.0 °F - 71.6 °F 83% 29.86 in 10.0 mi Calm Calm - N/A Thunderstorm Scattered Clouds
10:45 PM 78.8 °F - 73.4 °F 83% 29.87 in 10.0 mi Variable 3.5 mph - N/A Thunderstorm Thunderstorm
10:55 PM 79.2 °F - 74.3 °F 85% 29.87 in 10.0 mi SE 4.6 mph - N/A Thunderstorm Thunderstorm
11:39 PM 78.8 °F - 73.4 °F 83% 29.87 in 10.0 mi Calm Calm - N/A Thunderstorm Mostly Cloudy
11:55 PM 79.3 °F - 73.4 °F 82% 29.86 in 10.0 mi ENE 5.8 mph - N/A   Scattered Clouds